Weather Roundup
Issued by NWS

Home | Current Version | Previous Version | Text Only | Print | Product List | Glossary On
Versions: 1 2 3 4 5 6 7 8 9 10 11 12 13 14 15 16 17 18 19 20 21 22 23 24 25 26 27 28 29 30 31 32 33 34 35 36 37 38 39 40 41 42 43 44 45 46 47 48 49 50
000
NZUS93 KARX 071810
HRRWXR

CURRENT HOURLY OBSERVATIONS ACROSS
MUCH OF THE UPPER MISSISSIPPI VALLEY
NATIONAL WEATHER SERVICE LA CROSSE WI
100 PM CDT TUE JUL 07 2015


...SOUTHEAST MINNESOTA...


CITY           SKY/WX    TMP DP  RH WIND       PRES   REMARKS
ROCHESTER      MOSUNNY   64  48  56 N10G20    30.16S
ROCHESTER/MAYO MOCLDY    63  44  49 NW6       30.15F
WINONA         PTSUNNY   66  46  48 E9        30.14S
AUSTIN         MOSUNNY   64  46  52 N10G17    30.15S
ALBERT LEA     PTSUNNY   63  48  59 N10G16    30.15F
DODGE CENTER   SUNNY     63  46  55 NE5       30.15F
PRESTON        PTSUNNY   60  46  59 NE8G21    30.15S
OWATONNA       MOSUNNY   64  46  52 NE6G18    30.16S
FARIBAULT      MOSUNNY   64  48  55 VRB10     30.16S
$$

...ELSEWHERE IN MINNESOTA...


CITY           SKY/WX    TMP DP  RH WIND       PRES   REMARKS
MINNEAPOLIS    MOSUNNY   67  46  47 NE13      30.16S
INTNL FALLS    SUNNY     69  42  37 W9        30.12F
DULUTH         MOSUNNY   67  43  41 N12       30.14F
RED WING       PTSUNNY   66  45  45 NE9       30.13S
REDWOOD FALLS  PTSUNNY   66  46  48 N8        30.19S
MANKATO        MOSUNNY   64  45  48 N10G16    30.17S
WORTHINGTON    MOSUNNY   63  46  55 N8        30.20S
FAIRMONT       PTSUNNY   63  45  51 NE7       30.17F
$$

...SOUTHWEST WISCONSIN...


CITY           SKY/WX    TMP DP  RH WIND       PRES   REMARKS
LA CROSSE      CLOUDY    65  45  48 N13G21    30.12S
PRAIRIE DU CHI CLOUDY    65  46  51 NW13      30.09S
BOSCOBEL       CLOUDY    68  49  50 N9        30.09S
LONE ROCK      CLOUDY    66  50  56 N10       30.08S
PLATTEVILLE    PTSUNNY   66  53  64 N13       30.07F
FORT MC COY    CLOUDY    65  44  47 NW7       30.12S
CAMP DOUGLAS   PTSUNNY   64  52  63 NW7       30.10S
VIROQUA        CLOUDY    62  48  61 N12G17    30.12S
WIS DELLS      CLOUDY    64  47  52 N9G16     30.08S
$$

...ELSEWHERE IN WISCONSIN...


CITY           SKY/WX    TMP DP  RH WIND       PRES   REMARKS
MILWAUKEE      PTSUNNY   65  49  56 N15G24    30.03S
MADISON        PTSUNNY   66  53  63 N9        30.05S
GREEN BAY      PTSUNNY   67  48  50 NW14      30.06S
EAU CLAIRE     PTSUNNY   67  48  50 N10       30.12F
BLACK RVR FLS  CLOUDY    64  43  45 NE10      30.12F
MEDFORD        PTSUNNY   65  47  52 N7        30.11F
WAUSAU         PTSUNNY   67  45  45 N10G17    30.08S
WIS RAPIDS     CLOUDY    64  43  46 N10       30.11S
MARSHFIELD     CLOUDY    65  45  48 N8        30.11S
RICE LAKE      PTSUNNY   65  47  51 N14       30.16S
$$

...NORTHEAST IOWA...


CITY           SKY/WX    TMP DP  RH WIND       PRES   REMARKS
DECORAH          N/A    N/A N/A N/A MISG        N/A
MASON CITY     PTSUNNY   66  50  56 NE12G18   30.16S
CHARLES CITY   MOSUNNY   64  48  55 N13       30.14R
OELWEIN        MOSUNNY   66  50  55 N13       30.11S
$$

...ELSEWHERE IN IOWA...


CITY           SKY/WX    TMP DP  RH WIND       PRES   REMARKS
DES MOINES     MOSUNNY   70  50  49 N12       30.10F
IOWA CITY      PTSUNNY   69  55  60 N13G22    30.07S HAZE
FORT DODGE     SUNNY     66  48  52 N12       30.15F
$$

...NORTHERN ILLINOIS...


CITY           SKY/WX    TMP DP  RH WIND       PRES   REMARKS
CHICAGO-OHARE  MOSUNNY   67  46  47 NE25      30.02R
CHICAGO-MIDWAY MOSUNNY   68  47  46 NE21G28   30.01R
MOLINE         PTSUNNY   70  55  59 N10       30.03S HAZE
ROCKFORD       CLOUDY    69  54  58 N15       30.04S
PEORIA         CLOUDY    65  61  87 NE9       30.03R FOG
$$

NOTE: "FAIR" INDICATES FEW OR NO CLOUDS BELOW 12,000 FEET WITH NO
SIGNIFICANT WEATHER AND/OR OBSTRUCTIONS TO VISIBILITY. WIND
SPEEDS ARE IN MILES-PER-HOUR.



USA.gov is the U.S. government's official web portal to all federal, state and local government web resources and services.